Regional Weather Roundup
Issued by NWS

Home | Current Version | Previous Version | Text Only | Print | Product List | Glossary On
Versions: 1 2 3 4 5 6 7 8 9 10 11 12 13 14 15 16 17 18 19 20 21 22 23 24 25 26 27 28 29 30 31 32 33 34 35 36 37 38 39 40 41 42 43 44 45 46 47 48 49 50
000
ASUS43 KLMK 270410
RWRKY
KENTUCKY REGIONAL WEATHER ROUNDUP
NATIONAL WEATHER SERVICE LOUISVILLE KY
1200 AM EDT FRI MAR 27 2015

NOTE "FAIR" INDICATES FEW OR NO CLOUDS BELOW 12,000 FEET
WITH NO SIGNIFICANT WEATHER AND/OR OBSTRUCTIONS TO VISIBILITY.

KYZ001>023-026-027-061>063-070>075-270500-
WESTERN AND SOUTH CENTRAL KENTUCKY

CITY           SKY/WX    TMP DP  RH WIND       PRES   REMARKS
PADUCAH        CLEAR     36  32  85 CALM      30.04F
HENDERSON      CLEAR     34  30  86 CALM      30.03F
OWENSBORO      CLEAR     36  34  92 CALM      30.04F
HOPKINSVILLE   PTCLDY    38  35  87 NW5       30.02F WCI  35
BOWLING GREEN  CLEAR     41  36  82 N3        30.02F
GLASGOW        CLOUDY    40  36  84 N8        30.00F
$$

KYZ024-025-028>034-038-045-046-053-270500-
NORTH CENTRAL KENTUCKY

CITY           SKY/WX    TMP DP  RH WIND       PRES   REMARKS
LOUISVILLE/SDF MOCLDY    40  34  79 W6        30.02S
LOUISVILLE/LOU MOCLDY    40  36  86 CALM      30.02R
FORT KNOX      CLOUDY    38  37  94 CALM      30.00S
$$

KYZ035>037-039>044-047>052-055>060-089>105-270500-
NORTHEAST KENTUCKY

CITY           SKY/WX    TMP DP  RH WIND       PRES   REMARKS
LEXINGTON      CLOUDY    39  36  89 NW5       29.99R
COVINGTON      PTCLDY    36  30  79 W6        29.98R WCI  31
FRANKFORT      CLOUDY    39  35  86 VRB3      29.98S
$$

KYZ054-064>069-076>088-106>120-270500-
SOUTHEAST KENTUCKY

CITY           SKY/WX    TMP DP  RH WIND       PRES   REMARKS
JACKSON        LGT RAIN  40  37  89 CALM      29.93S
LONDON         LGT RAIN  41  36  82 N5        29.96R
SOMERSET       CLOUDY    39  37  93 N6        29.98F WCI  35
MIDDLESBORO    LGT RAIN  43  40  88 N6        29.93R
MONTICELLO     CLOUDY    42  41  97 N3        30.00S
$$



USA.gov is the U.S. government's official web portal to all federal, state and local government web resources and services.